Wind_Speed
12 18 14 8 3 6 5 12 6 14 23 26 30 30 37 45 42 47 47 44 41 36 34 13 5 16 34 38 38 37 33 31 26 32 40 52 55 56 57 53 58 57 57 55
11 1 4 4 1 13 9 8 13 13 21 25 40 41 40 42 40 47 47 48 46 43 34 17 3 20 34 37 36 32 33 32 27 29 40 52 53 53 53 60 62 55 53 52
5 7 3 3 4 11 16 15 8 7 22 28 31 30 45 36 48 47 46 47 47 42 34 17 3 21 29 38 39 34 27 28 27 18 32 46 53 53 52 52 46 46 60 55
4 7 4 5 4 8 10 14 2 16 26 30 31 48 46 36 45 49 54 54 51 45 31 15 8 26 33 41 38 37 33 34 36 39 36 40 44 44 46 46 49 54 56 47
2 2 6 2 6 12 7 20 5 23 27 39 43 34 20 48 56 52 52 51 49 46 31 16 14 30 37 39 37 32 33 30 28 23 27 36 45 46 51 53 51 51 46 45
3 3 4 5 10 25 4 5 29 36 31 37 43 22 22 61 59 57 60 57 55 45 34 15 18 34 35 37 35 34 29 26 24 23 36 37 42 46 45 48 50 49 46 46
3 4 6 2 21 22 6 7 41 37 39 39 20 27 50 54 52 53 51 52 54 46 39 19 20 35 36 36 35 31 29 25 26 27 31 34 36 38 37 37 36 35 33 35
2 3 6 11 4 3 7 27 29 36 37 42 44 47 49 51 53 54 63 62 57 49 41 33 29 40 35 34 29 27 27 26 31 28 22 26 32 34 33 31 34 35 35 36
5 5 4 17 12 6 24 26 27 34 41 42 45 48 50 52 54 54 53 57 56 54 49 41 36 39 33 37 30 31 30 27 27 25 24 24 28 31 31 32 34 35 38 37
3 2 8 24 7 23 27 26 31 33 36 39 40 44 48 50 53 52 55 55 55 52 51 46 33 31 33 30 30 29 28 29 28 24 24 23 20 25 24 26 29 30 31 34
6 11 18 2 27 28 26 29 30 31 33 36 38 44 45 48 49 50 47 46 46 47 45 44 37 26 24 23 27 31 28 26 23 17 16 14 17 17 18 20 19 21 27 30
4 7 6 23 29 22 26 30 30 31 35 34 35 39 40 43 43 44 44 45 45 46 44 42 37 31 22 19 22 25 24 23 21 21 21 15 15 24 20 17 20 18 21 25
6 16 22 25 17 19 25 27 27 27 28 32 34 34 36 38 38 38 39 40 40 40 38 36 34 28 25 21 18 22 23 21 18 15 18 22 20 16 19 18 17 14 15 18
14 18 16 12 19 21 22 24 24 24 26 27 31 34 34 35 36 36 36 35 33 33 31 31 31 29 24 17 15 15 16 17 16 16 16 18 21 23 21 19 18 19 16 14
12 13 16 19 17 18 19 22 24 26 28 29 29 31 34 36 36 34 32 32 31 29 29 30 28 27 22 19 16 16 15 14 15 15 15 16 17 17 19 20 20 22 22 19
14 13 12 13 16 18 19 21 25 27 28 29 28 28 29 29 30 30 29 30 33 33 29 26 25 24 20 17 15 13 10 12 13 13 13 13 15 16 18 20 22 23 23 23
12 9 12 13 15 18 20 21 22 24 26 27 26 26 25 26 27 28 28 24 23 24 24 23 23 19 15 14 12 9 8 8 10 10 12 13 13 13 16 21 23 24 25 25
9 11 11 14 16 18 20 21 22 22 23 24 24 23 24 25 26 26 26 23 20 19 19 19 18 17 15 12 11 9 6 5 8 10 10 11 12 14 16 19 23 26 29 29
10 11 11 13 13 15 17 19 20 20 20 20 21 21 21 21 22 23 23 24 25 24 23 19 17 15 12 11 9 8 6 4 7 10 13 14 14 15 17 21 25 27 30 28
10 11 12 13 13 14 15 16 17 18 18 17 18 18 18 19 21 22 22 23 23 22 19 17 14 13 11 10 9 7 5 5 6 8 9 13 16 18 19 19 23 24 22 21
11 12 12 13 13 13 12 14 16 16 17 16 16 17 18 18 17 19 21 24 24 23 18 15 14 13 11 9 7 6 4 5 7 9 12 15 17 18 19 21 22 21 21 22
12 12 12 12 13 13 10 11 12 13 15 15 14 14 13 14 13 14 17 19 21 21 19 17 16 13 10 8 6 6 6 6 8 10 13 15 16 19 21 21 22 23 23 23
13 12 13 13 13 13 11 10 10 11 13 13 14 13 13 13 14 15 14 16 17 18 18 18 15 12 9 7 6 6 7 8 10 11 13 15 17 19 21 24 26 25 24 22
13 13 14 13 14 14 12 10 10 10 11 11 12 12 11 10 8 10 12 13 13 15 16 15 13 10 8 10 10 10 10 11 13 16 18 19 22 24 25 25 25 24 23 24
14 14 14 14 15 14 12 11 10 11 10 10 10 10 9 9 8 8 9 10 12 13 13 12 11 12 13 13 14 15 16 16 17 19 21 23 24 24 23 22 22 24 25 26
15 15 14 15 16 15 13 12 11 10 10 10 9 8 7 7 6 6 6 6 7 9 10 10 12 12 14 15 16 17 17 18 19 19 20 21 22 23 23 24 25 25 24 24
16 15 15 14 14 14 12 11 10 10 10 10 9 7 6 5 5 4 4 4 5 6 7 9 10 11 14 16 17 18 19 21 20 20 21 22 22 23 23 24 25 25 25 23
Wind_Direction
258 274 274 262 193 311 289 299 271 293 304 315 326 323 320 318 320 331 332 333 335 338 346 354 141 175 187 169 173 181 188 192 199 193 193 194 203 199 195 203 200 210 207 206
301 279 189 182 213 344 325 287 281 280 292 324 318 322 323 326 332 334 335 336 338 343 349 5 69 167 174 167 170 173 185 186 191 194 192 188 194 193 206 205 206 207 213 211
273 316 320 354 237 339 307 306 289 305 322 326 328 329 326 329 337 335 336 339 338 343 350 360 66 160 165 168 167 174 179 177 172 175 197 198 198 197 195 198 206 216 217 221
284 344 9 248 235 261 285 298 230 330 326 324 324 320 315 339 338 337 340 341 340 344 358 18 140 146 154 166 164 174 181 182 182 180 187 196 197 200 206 213 217 210 205 207
333 267 276 7 335 323 354 309 352 336 327 326 328 320 320 345 342 340 338 340 342 351 3 22 136 142 149 157 160 161 176 175 183 183 198 199 197 194 195 199 205 208 207 208
346 315 273 245 310 318 125 282 353 338 325 328 337 346 333 337 340 342 347 349 355 2 13 46 145 137 151 153 151 163 169 169 177 188 198 193 190 188 193 196 199 198 200 207
278 268 287 300 320 340 47 285 325 325 321 324 331 324 317 331 339 344 345 350 4 14 27 57 122 145 143 151 151 159 172 166 179 190 190 192 188 189 188 191 194 196 199 203
316 345 322 1 356 43 281 309 313 320 323 323 326 329 332 338 343 351 354 4 15 13 20 61 116 139 149 148 153 163 162 163 175 175 183 191 186 184 186 193 193 190 196 191
185 240 325 333 319 282 330 322 325 325 332 331 328 332 337 341 346 352 357 2 15 21 26 50 89 122 147 140 162 167 158 152 161 161 175 186 190 190 186 191 190 189 193 190
4 273 315 323 330 330 334 332 335 338 339 336 333 337 342 346 352 358 3 9 11 22 28 46 66 101 118 134 156 155 150 145 145 146 157 156 158 173 173 188 191 195 188 186
262 297 326 333 329 333 332 335 340 340 345 342 347 345 348 351 356 358 3 9 15 21 34 43 54 80 125 138 151 154 152 142 140 137 143 155 164 165 161 164 176 186 185 181
257 310 275 305 327 334 334 338 342 343 342 347 352 349 352 353 359 357 3 8 16 21 29 41 52 67 85 112 147 155 155 152 149 154 158 157 154 165 174 179 176 184 185 191
278 303 307 314 325 333 333 340 342 342 345 346 348 354 355 354 359 359 5 9 15 23 27 36 47 59 70 91 127 142 136 145 151 155 155 163 167 179 183 183 181 179 188 188
292 305 310 316 325 334 335 338 340 343 348 353 351 353 357 357 360 5 6 8 13 21 28 36 45 52 55 70 84 111 130 137 149 153 158 161 165 170 183 180 170 160 165 181
293 300 302 311 323 328 333 340 344 349 350 354 358 357 357 356 360 5 6 7 13 20 26 29 38 44 54 60 76 92 102 118 131 140 151 159 161 167 167 167 170 162 159 158
301 303 308 315 321 329 338 346 347 347 348 349 353 358 357 356 359 4 10 9 11 12 18 24 31 34 39 53 59 75 95 108 121 136 143 152 157 169 169 164 169 169 167 167
301 310 314 320 330 336 339 344 340 341 342 346 349 351 353 360 4 8 11 15 17 14 13 16 25 28 35 47 66 74 76 105 120 131 143 149 159 167 169 169 173 174 176 171
291 299 307 313 326 331 334 340 340 339 341 344 345 349 352 2 8 9 8 9 21 28 21 21 23 19 23 39 52 70 85 114 141 150 158 164 170 168 168 177 173 168 166 170
283 293 300 307 315 319 328 333 337 338 338 342 345 351 352 356 3 9 13 17 17 18 18 20 22 23 26 41 56 59 93 126 143 156 165 166 166 167 173 176 174 176 176 177
279 288 296 302 307 311 323 329 335 338 339 340 347 349 355 1 2 5 16 26 23 13 7 15 21 26 28 39 47 64 83 120 151 162 167 167 168 170 173 180 179 176 174 168
282 284 290 295 300 304 316 323 332 338 342 344 344 349 355 357 359 3 13 19 20 16 15 20 23 29 31 33 41 64 89 121 149 160 168 172 170 171 170 167 168 166 163 161
282 284 288 291 296 299 307 315 326 335 338 342 344 343 346 357 5 9 13 18 15 19 18 25 25 24 28 34 51 78 100 125 143 152 160 161 161 166 162 161 159 156 157 158
279 283 284 288 291 293 297 304 311 323 331 337 344 347 350 352 1 10 23 24 21 21 27 28 23 24 33 46 67 89 109 125 134 141 146 151 152 154 152 150 149 151 153 153
278 279 281 283 284 286 292 296 298 304 316 328 335 340 344 351 353 360 16 20 26 29 31 36 41 49 65 83 91 99 111 121 129 134 140 145 145 145 146 146 146 148 148 148
278 278 278 279 279 281 284 288 292 293 298 310 324 328 335 344 353 4 18 28 38 35 37 47 61 77 85 93 101 108 112 116 121 128 132 135 137 139 141 143 143 142 141 142
274 273 275 274 275 275 278 281 285 287 289 296 308 318 325 339 350 1 14 34 50 56 49 51 65 78 92 99 105 108 110 115 122 126 130 132 134 135 136 137 137 138 139 140
270 271 273 272 271 272 275 278 279 281 281 286 293 303 317 335 351 6 23 47 57 68 72 77 73 77 81 95 103 109 113 114 115 120 124 126 129 131 134 135 136 134 129 125
Height
1542 1533 1531 1533 1533 1533 1532 1523 1518 1488 1488 1472 1462 1449 1435 1419 1404 1390 1375 1363 1352 1341 1330 1325 1324 1330 1335 1344 1355 1364 1374 1381 1388 1394 1396 1402 1409 1418 1427 1436 1446 1453 1461 1473
1539 1527 1536 1530 1529 1525 1520 1516 1509 1500 1490 1480 1463 1450 1430 1418 1403 1388 1374 1360 1346 1337 1329 1323 1322 1327 1335 1341 1350 1360 1374 1381 1387 1391 1396 1402 1408 1416 1425 1430 1437 1447 1457 1465
1545 1528 1526 1533 1541 1526 1517 1509 1507 1499 1488 1470 1455 1442 1425 1415 1403 1389 1376 1363 1347 1339 1328 1325 1323 1323 1330 1343 1352 1364 1370 1379 1384 1390 1399 1402 1406 1412 1419 1428 1438 1446 1454 1461
1548 1535 1555 1537 1529 1524 1518 1502 1505 1499 1488 1477 1468 1446 1428 1421 1409 1388 1371 1358 1344 1337 1328 1324 1323 1327 1334 1346 1351 1365 1374 1380 1385 1392 1398 1402 1407 1413 1420 1427 1434 1441 1448 1458
1562 1551 1532 1526 1528 1523 1522 1499 1500 1494 1481 1471 1461 1443 1427 1422 1403 1391 1379 1365 1351 1335 1325 1324 1323 1328 1338 1344 1352 1359 1372 1379 1384 1389 1395 1400 1405 1412 1419 1423 1432 1440 1447 1454
1554 1561 1545 1538 1525 1516 1512 1513 1494 1493 1478 1467 1455 1433 1417 1413 1404 1391 1375 1365 1349 1337 1329 1324 1325 1327 1334 1345 1351 1363 1371 1377 1384 1389 1396 1401 1405 1410 1419 1424 1431 1439 1445 1452
1556 1558 1536 1531 1524 1514 1527 1519 1500 1496 1484 1471 1464 1467 1439 1425 1412 1398 1385 1369 1354 1341 1334 1329 1328 1336 1342 1350 1354 1365 1375 1378 1384 1392 1399 1403 1409 1414 1420 1427 1433 1438 1446 1453
1561 1574 1551 1532 1525 1534 1530 1517 1508 1496 1487 1474 1464 1452 1439 1427 1411 1399 1371 1361 1352 1349 1345 1337 1339 1341 1347 1351 1359 1372 1376 1379 1389 1396 1399 1404 1408 1414 1419 1429 1434 1441 1448 1454
1558 1544 1532 1530 1528 1527 1525 1518 1507 1499 1487 1479 1464 1451 1441 1427 1413 1401 1391 1374 1364 1346 1341 1337 1340 1347 1356 1359 1368 1375 1381 1388 1394 1398 1405 1410 1412 1417 1421 1428 1433 1440 1447 1453
1551 1536 1532 1530 1529 1527 1522 1517 1508 1499 1490 1481 1470 1457 1445 1434 1420 1412 1396 1384 1370 1361 1349 1346 1346 1354 1360 1366 1376 1382 1387 1394 1399 1403 1407 1411 1414 1419 1423 1430 1435 1442 1446 1453
1547 1536 1532 1528 1528 1522 1518 1514 1507 1497 1492 1483 1475 1460 1450 1440 1428 1418 1413 1400 1391 1379 1373 1367 1361 1363 1370 1376 1382 1388 1394 1397 1402 1407 1411 1414 1418 1423 1428 1432 1439 1443 1445 1451
1546 1538 1536 1529 1526 1521 1517 1512 1506 1498 1488 1483 1478 1466 1457 1445 1439 1426 1416 1406 1398 1383 1380 1378 1375 1375 1376 1383 1388 1394 1399 1402 1406 1411 1414 1418 1422 1428 1432 1438 1442 1444 1447 1454
1540 1538 1534 1529 1523 1521 1515 1511 1505 1500 1493 1483 1477 1473 1464 1454 1445 1436 1425 1415 1410 1403 1395 1392 1388 1387 1391 1395 1396 1395 1398 1404 1409 1412 1416 1420 1424 1430 1434 1437 1441 1446 1452 1457
1535 1532 1528 1526 1523 1519 1514 1510 1506 1501 1495 1488 1478 1470 1465 1458 1450 1443 1434 1427 1420 1416 1413 1406 1400 1396 1399 1399 1400 1401 1404 1407 1411 1414 1418 1421 1424 1431 1435 1440 1442 1445 1453 1457
1531 1529 1526 1523 1520 1518 1513 1508 1504 1499 1494 1489 1483 1475 1465 1457 1451 1445 1439 1432 1426 1421 1415 1410 1408 1408 1407 1408 1407 1406 1409 1411 1413 1417 1421 1425 1429 1433 1436 1439 1443 1447 1454 1460
1529 1528 1526 1523 1520 1519 1513 1507 1503 1498 1494 1489 1485 1480 1474 1467 1459 1450 1444 1436 1428 1424 1423 1420 1418 1415 1413 1411 1411 1413 1414 1417 1419 1422 1425 1429 1431 1437 1440 1441 1447 1450 1455 1459
1527 1527 1524 1522 1519 1516 1515 1508 1505 1500 1494 1490 1485 1481 1478 1472 1466 1458 1452 1447 1441 1435 1429 1425 1423 1424 1424 1420 1418 1417 1418 1420 1422 1425 1428 1433 1437 1440 1441 1444 1449 1453 1457 1460
1524 1524 1521 1518 1515 1511 1511 1508 1504 1500 1495 1491 1486 1481 1477 1472 1468 1464 1458 1453 1449 1446 1439 1434 1430 1427 1423 1422 1421 1421 1423 1424 1426 1429 1431 1435 1439 1441 1443 1447 1450 1453 1457 1461
1521 1521 1520 1519 1515 1511 1508 1506 1503 1500 1496 1492 1487 1483 1478 1474 1469 1465 1461 1455 1449 1444 1443 1439 1436 1432 1431 1428 1427 1427 1429 1430 1430 1432 1436 1438 1440 1442 1445 1448 1452 1455 1460 1463
1518 1516 1517 1517 1515 1511 1507 1505 1502 1500 1497 1492 1489 1485 1480 1475 1470 1466 1462 1458 1455 1451 1447 1443 1441 1439 1435 1432 1433 1432 1433 1433 1434 1436 1438 1440 1442 1444 1448 1452 1455 1459 1463 1467
1515 1514 1513 1512 1512 1510 1506 1504 1501 1499 1496 1493 1490 1486 1482 1478 1475 1471 1466 1460 1456 1454 1450 1446 1443 1441 1439 1438 1437 1435 1437 1437 1439 1440 1442 1444 1444 1449 1452 1456 1460 1463 1467 1470
1511 1510 1510 1509 1509 1508 1504 1502 1500 1498 1496 1493 1491 1488 1485 1481 1478 1474 1470 1466 1462 1457 1452 1448 1445 1444 1442 1442 1441 1441 1440 1441 1442 1444 1446 1447 1447 1452 1455 1458 1461 1465 1470 1475
1509 1507 1507 1507 1507 1505 1502 1501 1499 1498 1496 1494 1491 1488 1486 1483 1480 1477 1473 1470 1466 1462 1457 1452 1450 1448 1445 1444 1443 1443 1444 1445 1446 1446 1447 1449 1451 1455 1458 1461 1465 1469 1474 1478
1505 1503 1504 1504 1504 1503 1500 1499 1497 1497 1496 1494 1492 1489 1487 1484 1482 1480 1477 1475 1471 1468 1464 1460 1457 1455 1453 1451 1450 1449 1449 1450 1450 1451 1454 1456 1458 1460 1464 1467 1469 1474 1479 1482
1501 1501 1501 1500 1500 1501 1498 1496 1495 1495 1494 1494 1492 1490 1488 1485 1482 1480 1478 1476 1473 1471 1470 1468 1465 1463 1460 1459 1457 1457 1457 1458 1458 1459 1461 1463 1464 1466 1469 1472 1475 1477 1482 1486
1496 1496 1495 1496 1497 1497 1495 1494 1492 1492 1492 1491 1490 1489 1487 1485 1483 1482 1480 1478 1476 1475 1476 1474 1471 1469 1467 1465 1464 1464 1464 1464 1465 1466 1467 1468 1469 1471 1473 1476 1480 1483 1487 1490
1492 1492 1491 1491 1493 1493 1492 1491 1490 1489 1489 1489 1488 1487 1486 1485 1483 1482 1481 1479 1479 1478 1478 1477 1476 1475 1473 1472 1471 1471 1470 1470 1471 1472 1473 1474 1476 1478 1481 1483 1486 1489 1492 1496